CW1419 Weather Reports


time (UTC)temp
F
wind
direction
speed
knots
gust
knots
rain 1hr
in
rain 24hr
in
rain mn
in
humidity
%
barometer
mb
20260503232003 66 277 7.0 15.6 0.00 0.00 0.00 41 1003.6
20260503231504 66 277 8.7 19.1 0.00 0.00 0.00 41 1003.7
20260503231003 66 257 11.3 19.1 0.00 0.00 0.00 41 1003.6
20260503230503 66 252 9.6 20.0 0.00 0.00 0.00 40 1003.7
20260503230004 66 264 9.6 20.0 0.00 0.00 0.00 40 1003.8
20260503225503 66 239 7.8 15.6 0.00 0.00 0.00 42 1003.9
20260503225003 66 271 9.6 17.4 0.00 0.00 0.00 42 1003.8
20260503224505 66 309 7.8 17.4 0.00 0.00 0.00 42 1003.8
20260503224003 66 277 10.4 20.0 0.00 0.00 0.00 42 1003.8
20260503223503 66 272 11.3 20.0 0.00 0.00 0.00 42 1003.9
20260503223003 66 254 11.3 20.9 0.00 0.00 0.00 42 1003.9
20260503222503 66 259 12.2 20.9 0.00 0.00 0.00 42 1003.9
20260503222003 65 257 7.0 24.3 0.00 0.00 0.00 43 1003.9
20260503221504 65 269 13.0 24.3 0.00 0.00 0.00 42 1003.9
20260503221003 65 244 9.6 24.3 0.00 0.00 0.00 42 1004.0
20260503220502 65 263 10.4 24.3 0.00 0.00 0.00 42 1004.1
20260503220004 65 263 10.4 20.0 0.00 0.00 0.00 43 1004.0
20260503215504 65 263 7.8 20.0 0.00 0.00 0.00 43 1004.0
20260503215002 65 272 8.7 23.5 0.00 0.00 0.00 42 1004.2
20260503214507 65 236 13.0 23.5 0.00 0.00 0.00 42 1004.0
20260503214004 65 250 10.4 20.0 0.00 0.00 0.00 42 1004.2
20260503213503 65 260 8.7 24.3 0.00 0.00 0.00 43 1004.3
20260503213005 64 263 12.2 24.3 0.00 0.00 0.00 42 1004.5
20260503212503 65 281 12.2 24.3 0.00 0.00 0.00 42 1004.6
20260503212003 65 284 9.6 22.6 0.00 0.00 0.00 43 1004.5
20260503211503 64 256 13.0 22.6 0.00 0.00 0.00 42 1004.5
20260503211002 64 275 12.2 22.6 0.00 0.00 0.00 43 1004.5
20260503210502 65 246 10.4 21.7 0.00 0.00 0.00 43 1004.5
20260503210005 65 241 8.7 21.7 0.00 0.00 0.00 43 1004.5
20260503205504 64 150 10.4 20.0 0.00 0.00 0.00 43 1004.6
20260503205003 64 254 12.2 19.1 0.00 0.00 0.00 42 1004.7
20260503204523 64 255 12.2 19.1 0.00 0.00 0.00 44 1004.8
20260503204008 64 235 9.6 21.7 0.00 0.00 0.00 47 1005.0
20260503203505 63 249 12.2 21.7 0.00 0.00 0.00 47 1005.0
20260503203006 63 263 10.4 22.6 0.00 0.00 0.00 48 1005.0
20260503202504 62 242 11.3 22.6 0.00 0.00 0.00 48 1005.1
20260503202003 62 259 10.4 22.6 0.00 0.00 0.00 49 1005.3
20260503201508 62 271 10.4 20.0 0.00 0.00 0.00 49 1005.5
20260503201003 62 241 11.3 22.6 0.00 0.00 0.00 48 1005.6
20260503200505 62 227 10.4 22.6 0.00 0.00 0.00 49 1005.7
20260503200008 62 240 11.3 30.4 0.00 0.00 0.00 48 1005.8
20260503195506 62 248 12.2 30.4 0.00 0.00 0.00 47 1005.9
20260503195006 62 255 11.3 23.5 0.00 0.00 0.00 47 1005.9
20260503194508 62 246 13.0 25.2 0.00 0.00 0.00 46 1006.0
20260503194006 63 265 15.6 28.7 0.00 0.00 0.00 44 1005.9
20260503193504 62 231 10.4 28.7 0.00 0.00 0.00 46 1006.0
20260503193022 62 259 14.8 28.7 0.00 0.00 0.00 45 1006.1
20260503192504 62 275 13.9 31.3 0.00 0.00 0.00 43 1006.0
20260503192007 62 237 15.6 31.3 0.00 0.00 0.00 43 1006.0
20260503191505 62 252 14.8 27.8 0.00 0.00 0.00 42 1005.9
20260503191002 63 258 16.5 26.9 0.00 0.00 0.00 43 1005.9
20260503190504 62 265 16.5 25.2 0.00 0.00 0.00 42 1005.8
20260503190010 62 245 13.0 26.1 0.00 0.00 0.00 43 1006.0
20260503185503 62 261 11.3 26.1 0.00 0.00 0.00 43 1006.0
20260503185003 62 252 14.8 26.1 0.00 0.00 0.00 43 1006.1
20260503184516 62 255 14.8 29.5 0.00 0.00 0.00 44 1006.1
20260503184003 61 257 15.6 29.5 0.00 0.00 0.00 44 1006.1
20260503183510 61 267 16.5 29.5 0.00 0.00 0.00 44 1006.4
20260503183011 61 229 15.6 27.8 0.00 0.00 0.00 45 1006.5
20260503182505 61 229 15.6 25.2 0.00 0.00 0.00 46 1006.7
20260503182012 60 254 14.8 25.2 0.00 0.00 0.00 47 1006.7
20260503181514 60 232 9.6 23.5 0.00 0.00 0.00 49 1006.8
20260503181004 60 234 12.2 23.5 0.00 0.00 0.00 49 1006.9
20260503180509 60 236 10.4 23.5 0.00 0.00 0.00 50 1007.0
20260503180011 60 248 7.8 24.3 0.00 0.00 0.00 52 1007.0
20260503175504 59 264 7.0 24.3 0.00 0.00 0.00 52 1007.1
20260503175007 59 257 9.6 24.3 0.00 0.00 0.00 51 1007.1
20260503174515 59 239 7.0 25.2 0.00 0.00 0.00 52 1007.2
20260503174003 58 167 7.8 25.2 0.00 0.00 0.00 53 1007.3
20260503173507 58 201 8.7 18.2 0.00 0.00 0.00 53 1007.5
20260503173017 58 227 8.7 19.1 0.00 0.00 0.00 54 1007.5
20260503172509 57 248 8.7 21.7 0.00 0.00 0.00 55 1007.6
20260503172004 56 228 12.2 21.7 0.00 0.00 0.00 55 1007.6
20260503171514 56 225 12.2 21.7 0.00 0.00 0.00 55 1007.7
20260503171008 56 255 7.0 19.1 0.00 0.00 0.00 56 1007.8
20260503170507 56 238 10.4 19.1 0.00 0.00 0.00 57 1007.8
20260503151007 55 258 12.2 23.5 0.00 0.00 0.00 55 1009.3
20260503150508 55 270 11.3 25.2 0.00 0.00 0.00 54 1009.4
20260503131003 51 263 8.7 20.9 0.00 0.00 0.00 56 1010.2
20260503130502 51 262 9.6 20.9 0.00 0.00 0.00 55 1010.2
20260503110504 49 235 9.6 17.4 0.00 0.00 0.00 49 1010.2
20260503090506 47 234 7.0 11.3 0.00 0.00 0.00 51 1011.0
20260503081509 47 244 7.0 14.8 0.00 0.00 0.00 51 1011.4
20260503081008 47 237 7.8 14.8 0.00 0.00 0.00 51 1011.4
20260503080504 47 254 7.0 12.2 0.00 0.00 0.00 51 1011.4
20260503072504 47 247 8.7 13.9 0.00 0.00 0.00 51 1011.7
20260503072007 47 253 7.8 13.9 0.00 0.00 0.00 51 1011.7
20260503071513 47 261 6.1 13.9 0.00 0.00 0.00 51 1011.8
20260503071004 47 238 7.0 13.9 0.00 0.00 0.00 51 1011.8
20260503070504 47 238 7.8 13.9 0.00 0.00 0.00 51 1011.8
20260503055006 47 229 7.0 12.2 0.00 0.00 0.00 51 1012.4
20260503054516 47 247 7.8 12.2 0.00 0.00 0.00 51 1012.5
20260503054006 47 248 7.8 12.2 0.00 0.00 0.00 51 1012.5
20260503053505 47 246 7.0 14.8 0.00 0.00 0.00 51 1012.6
20260503053019 47 226 7.8 14.8 0.00 0.00 0.00 51 1012.7
20260503052506 47 242 7.8 13.0 0.00 0.00 0.00 51 1012.8
20260503052008 47 250 7.8 13.0 0.00 0.00 0.00 51 1012.7
20260503051505 47 277 7.8 13.0 0.00 0.00 0.00 51 1012.8
20260503051003 47 263 7.8 13.0 0.00 0.00 0.00 51 1012.8
20260503050504 47 249 7.8 13.0 0.00 0.00 0.00 51 1012.8
20260503050012 47 242 7.8 13.0 0.00 0.00 0.00 50 1012.7
20260503045505 47 244 7.0 11.3 0.00 0.00 0.00 50 1012.7
20260503045004 47 252 7.0 12.2 0.00 0.00 0.00 50 1012.7
20260503044503 47 254 7.8 12.2 0.00 0.00 0.00 50 1012.8
20260503044003 47 242 7.8 13.0 0.00 0.00 0.00 50 1012.8
20260503043502 47 243 7.8 13.0 0.00 0.00 0.00 50 1012.8
20260503043005 48 242 7.0 12.2 0.00 0.00 0.00 50 1012.9
20260503042503 48 247 7.8 10.4 0.00 0.00 0.00 50 1012.9
20260503042003 48 243 7.0 12.2 0.00 0.00 0.00 50 1012.9
20260503041506 48 250 7.8 12.2 0.00 0.00 0.00 50 1013.0
20260503041002 48 247 7.0 14.8 0.00 0.00 0.00 50 1013.0
20260503040502 48 255 7.0 14.8 0.00 0.00 0.00 50 1013.1
20260503040002 48 238 7.0 14.8 0.00 0.00 0.00 50 1013.1
20260503035502 48 236 7.0 11.3 0.00 0.00 0.00 49 1013.1
20260503035002 48 240 7.0 10.4 0.00 0.00 0.00 49 1013.1
20260503034505 48 240 7.0 12.2 0.00 0.00 0.00 49 1013.2
20260503034007 48 246 7.0 12.2 0.00 0.00 0.00 49 1013.2
20260503033504 48 229 6.1 10.4 0.00 0.00 0.00 49 1013.3
20260503033007 48 240 7.0 11.3 0.00 0.00 0.00 49 1013.3
20260503032503 48 236 7.0 11.3 0.00 0.00 0.00 49 1013.3
20260503032003 48 250 7.0 10.4 0.00 0.00 0.00 50 1013.3
20260503031516 49 245 5.2 11.3 0.00 0.00 0.00 50 1013.4
20260503031003 49 232 7.8 11.3 0.00 0.00 0.00 49 1013.4
20260503030502 49 223 5.2 9.6 0.00 0.00 0.00 50 1013.5
20260503030004 49 221 4.3 8.7 0.00 0.00 0.00 49 1013.6
20260503025508 49 235 5.2 8.7 0.00 0.00 0.00 49 1013.6
20260503025007 49 233 5.2 8.7 0.00 0.00 0.00 49 1013.7
20260503024508 49 232 4.3 7.8 0.00 0.00 0.00 49 1013.6
20260503024007 49 239 3.5 7.0 0.00 0.00 0.00 49 1013.7
20260503023503 49 231 3.5 7.0 0.00 0.00 0.00 49 1013.7
20260503023005 49 235 3.5 7.0 0.00 0.00 0.00 49 1013.8
20260503022503 49 238 3.5 7.0 0.00 0.00 0.00 49 1013.8
20260503022005 50 224 3.5 6.1 0.00 0.00 0.00 48 1013.8
20260503021519 50 224 1.7 7.0 0.00 0.00 0.00 48 1013.7
20260503021003 50 218 1.7 7.0 0.00 0.00 0.00 47 1013.8
20260503020503 50 234 1.7 6.1 0.00 0.00 0.00 47 1013.8
20260503020020 51 224 1.7 6.1 0.00 0.00 0.00 46 1013.7
20260503015503 51 214 1.7 5.2 0.00 0.00 0.00 44 1013.7
20260503015003 52 218 0.9 5.2 0.00 0.00 0.00 42 1013.6
20260503014510 52 220 1.7 5.2 0.00 0.00 0.00 41 1013.5
20260503014009 52 211 2.6 6.1 0.00 0.00 0.00 41 1013.5
20260503013503 52 226 1.7 7.8 0.00 0.00 0.00 40 1013.5
20260503013010 52 238 3.5 7.8 0.00 0.00 0.00 39 1013.4
20260503012508 53 244 3.5 7.8 0.00 0.00 0.00 39 1013.4
20260503012009 53 228 5.2 7.8 0.00 0.00 0.00 39 1013.3
20260503011508 53 248 4.3 7.8 0.00 0.00 0.00 39 1013.3
20260503011003 53 241 4.3 7.0 0.00 0.00 0.00 39 1013.3
20260503010503 53 257 2.6 7.0 0.00 0.00 0.00 39 1013.4
20260503010012 53 258 4.3 7.8 0.00 0.00 0.00 38 1013.3
20260503005504 53 243 3.5 7.8 0.00 0.00 0.00 37 1013.4
20260503005004 54 268 4.3 8.7 0.00 0.00 0.00 37 1013.4
20260503004518 54 258 4.3 8.7 0.00 0.00 0.00 37 1013.4
20260503004011 54 240 3.5 9.6 0.00 0.00 0.00 37 1013.4
20260503003506 54 270 5.2 9.6 0.00 0.00 0.00 37 1013.4
20260503003020 54 265 5.2 9.6 0.00 0.00 0.00 36 1013.4
20260503002504 54 269 2.6 9.6 0.00 0.00 0.00 37 1013.4
20260503002003 55 265 3.5 9.6 0.00 0.00 0.00 37 1013.4
20260503001521 55 273 4.3 9.6 0.00 0.00 0.00 36 1013.4
20260503001007 55 259 5.2 10.4 0.00 0.00 0.00 36 1013.5
20260503000503 55 252 6.1 11.3 0.00 0.00 0.00 35 1013.5
20260503000015 55 270 6.1 11.3 0.00 0.00 0.00 35 1013.5
20260502235503 55 248 6.1 13.9 0.00 0.00 0.00 35 1013.5
20260502235003 55 235 8.7 13.9 0.00 0.00 0.00 35 1013.5
20260502234518 55 248 4.3 13.9 0.00 0.00 0.00 35 1013.6
20260502234012 55 287 7.0 13.9 0.00 0.00 0.00 34 1013.7
20260502233509 55 262 7.8 13.9 0.00 0.00 0.00 34 1013.7
20260502233018 55 252 7.0 13.9 0.00 0.00 0.00 35 1013.8
20260502232506 55 262 6.1 13.9 0.00 0.00 0.00 35 1013.9